QZS-1R (QZSS/PRN 196)

Last updated on Sat Sep 05 2026 00:03:32 GMT+0000 (Coordinated Universal Time)

1 49336U 21096A 26247.40695345 -.00000248 00000+0 00000+0 0 9993 2 49336 37.6243 78.4118 0742539 269.7382 275.4786 1.00290458 17802
UTC large
Height (km)
Speed (km/s)
/
Latitude / Longitude
Inclination (degrees)
Orbital Period (minutes)
Azimuth
Elevation
Range (km)
Doppler Factor

Next 0 passes for location: London (51.5072 / 0.1276)

No passes found over London.
QZS-1R (QZSS/PRN 196)